User: anonymous
Location: NJAA Observatory
(40.6819°N, 74.8979°W)
Time: 17:54:43
(UTC-04:00)
Language:

Cosmos 220 Rocket - Orbit

View from above orbital plane
View from above orbital plane
View from above satellite
View from above satellite

Ground track
Ground track

The orbit data is extracted from the following two-line orbital elements,

1 03230U 68040B   14272.61905961  .00003113  00000-0  33975-3 0  3698
2 03230 074.0375 065.6208 0032665 280.7559 078.9944 14.88010911487880
Epoch (UTC): 29 September 2014 14:51:26
Eccentricity: 0.0032665
inclination: 74.0375°
perigee height: 581 km
apogee height: 627 km
right ascension of ascending node: 65.6208°
argument of perigee: 280.7559°
revolutions per day: 14.88010911
mean anomaly at epoch: 78.9944°
orbit number at epoch: 48788

The dashed part of the orbit path shows where the satellite is in the earth's shadow,  

DLR